Voltar ao catálogo

STARLINK-5529

AtivoComunicaçõesVLEO
NORAD 56495·PAYLOAD·🇺🇸 United States

Lançado May 10, 2023 de Vandenberg Space Force Base

Loading…

Próximas Passagens (próximas 24 horas)

TLE

AtualizadoSource: CelesTrak SupGP

Época: Sep 15, 2026, 02:43 UTC

1 56495C 23064AZ  26258.11368056  .00066975  00000+0  56164-2 0  2581
2 56495  70.0015 346.7767 0003218 267.9921 259.4534 14.98271441    18

Acompanhe STARLINK-5529 em tempo real com AllMySat

Download on the App Store